CQ0XBF-11 Weather Reports


time (UTC)temp
C
wind
direction
speed
KPH
gust
KPH
rain 1hr
cm
rain 24hr
cm
rain mn
cm
humidity
%
barometer
mb
20260509154425 15 180 0.0 0.0 0.00 0.00 0.51 82
20260509154302 15 180 0.0 0.0 0.00 0.00 0.51 82
20260509154224 15 180 0.0 0.0 0.00 0.00 0.51 82
20260509154022 15 180 0.0 0.0 0.00 0.00 0.51 82
20260509153857 15 180 0.0 0.0 0.00 0.00 0.48 82
20260509153821 15 180 0.0 0.0 0.00 0.00 0.48 82
20260509153619 15 180 0.0 0.0 0.00 0.00 0.48 82
20260509153418 15 180 0.0 0.0 0.00 0.00 0.48 82
20260509153300 15 180 0.0 0.0 0.00 0.00 0.48 83
20260509153216 15 180 0.0 0.0 0.00 0.00 0.48 83
20260509152813 15 180 0.0 0.0 0.00 0.00 0.48 83
20260509152646 15 180 0.0 0.0 0.00 0.00 0.48 83
20260509152612 15 180 0.0 0.0 0.00 0.00 0.48 83
20260509152410 15 180 0.0 0.0 0.00 0.00 0.48 83
20260509152209 15 180 0.0 0.0 0.00 0.00 0.48 83
20260509152007 15 180 0.0 0.0 0.00 0.00 0.48 83
20260509151806 15 180 0.0 0.0 0.00 0.00 0.48 82
20260509151604 15 180 0.0 0.0 0.00 0.00 0.48 81
20260509151403 15 180 0.0 0.0 0.00 0.00 0.48 79
20260509151201 15 180 0.0 0.0 0.00 0.00 0.48 79
20260509151000 16 180 0.0 0.0 0.00 0.00 0.46 80
20260509150758 15 180 0.0 0.0 0.00 0.00 0.46 80
20260509150557 15 180 0.0 0.0 0.00 0.00 0.46 79
20260509150355 16 180 0.0 0.0 0.00 0.00 0.46 78
20260509150154 16 180 0.0 0.0 0.00 0.00 0.46 76
20260509145952 16 180 0.0 0.0 0.00 0.00 0.46 76
20260509145751 16 180 0.0 0.0 0.00 0.00 0.46 75
20260509145620 17 180 0.0 0.0 0.00 0.00 0.46 76
20260509145549 17 180 0.0 0.0 0.00 0.00 0.46 76
20260509145348 17 180 0.0 0.0 0.00 0.00 0.46 77
20260509145146 17 180 0.0 0.0 0.00 0.00 0.46 77
20260509144944 17 180 0.0 0.0 0.00 0.00 0.46 76
20260509144742 17 180 0.0 0.0 0.00 0.00 0.46 75
20260509144541 17 180 0.0 0.0 0.00 0.00 0.46 75
20260509144339 17 180 0.0 0.0 0.00 0.00 0.46 75
20260509144227 18 180 0.0 0.0 0.00 0.00 0.46 73
20260509144137 18 180 0.0 0.0 0.00 0.00 0.46 73
20260509143936 18 180 0.0 0.0 0.00 0.00 0.46 74
20260509143810 18 180 0.0 0.0 0.00 0.00 0.46 77
20260509143734 18 180 0.0 0.0 0.00 0.00 0.46 77
20260509143616 18 180 0.0 0.0 0.00 0.00 0.46 78
20260509143533 18 180 0.0 0.0 0.00 0.00 0.46 78
20260509143404 18 180 0.0 0.0 0.00 0.00 0.46 79
20260509143332 18 180 0.0 0.0 0.00 0.00 0.46 79
20260509143206 17 180 0.0 0.0 0.00 0.00 0.46 79
20260509143129 17 180 0.0 0.0 0.00 0.00 0.46 79
20260509143015 17 180 0.0 0.0 0.00 0.00 0.46 82
20260509142927 17 180 0.0 0.0 0.00 0.00 0.46 82
20260509142726 16 180 0.0 0.0 0.00 0.00 0.46 82
20260509142605 16 180 0.0 0.0 0.00 0.00 0.46 82
20260509142525 16 180 0.0 0.0 0.00 0.00 0.46 82
20260509142322 16 180 0.0 0.0 0.00 0.00 0.46 81
20260509142121 16 180 0.0 0.0 0.00 0.00 0.46 80
20260509141918 16 180 0.0 0.0 0.00 0.00 0.46 79
20260509141758 16 180 0.0 0.0 0.00 0.00 0.46 79
20260509141717 16 180 0.0 0.0 0.00 0.00 0.46 79
20260509141515 16 180 0.0 0.0 0.00 0.00 0.46 78
20260509141314 16 180 0.0 0.0 0.00 0.00 0.46 78
20260509141112 16 180 0.0 0.0 0.00 0.00 0.46 78
20260509140911 17 180 0.0 0.0 0.00 0.00 0.46 78
20260509140709 16 180 0.0 0.0 0.00 0.00 0.46 80
20260509140508 16 180 0.0 0.0 0.00 0.00 0.46 80
20260509140306 17 180 0.0 0.0 0.00 0.00 0.46 80
20260509135903 16 180 0.0 0.0 0.00 0.00 0.46 79
20260509135702 17 180 0.0 0.0 0.00 0.00 0.46 78
20260509135500 17 180 0.0 0.0 0.00 0.00 0.46 77
20260509135259 17 180 0.0 0.0 0.00 0.00 0.43 77
20260509135057 17 180 0.0 0.0 0.00 0.00 0.41 76
20260509134856 17 180 0.0 0.0 0.00 0.00 0.41 75
20260509134754 17 180 0.0 0.0 0.00 0.00 0.41 77
20260509134654 17 180 0.0 0.0 0.00 0.00 0.41 77
20260509134528 17 180 0.0 0.0 0.00 0.00 0.41 77
20260509134453 17 180 0.0 0.0 0.00 0.00 0.41 77
20260509134251 17 180 0.0 0.0 0.00 0.00 0.41 75
20260509134050 17 180 0.0 0.0 0.00 0.00 0.41 72
20260509133848 17 180 0.0 0.0 0.00 0.00 0.38 71
20260509133723 18 180 0.0 0.0 0.00 0.00 0.33 68
20260509133647 18 180 0.0 0.0 0.00 0.00 0.33 68
20260509133445 18 180 0.0 0.0 0.00 0.00 0.28 64
20260509133244 18 180 0.0 0.0 0.00 0.00 0.25 59
20260509133042 18 180 0.0 0.0 0.00 0.00 0.25 55
20260509132841 19 180 0.0 0.0 0.00 0.00 0.25 55
20260509132714 19 180 0.0 0.0 0.00 0.00 0.25 54
20260509132639 19 180 0.0 0.0 0.00 0.00 0.25 54
20260509132521 19 180 0.0 0.0 0.00 0.00 0.25 55
20260509132438 19 180 0.0 0.0 0.00 0.00 0.25 55
20260509132236 19 180 0.0 0.0 0.00 0.00 0.25 58
20260509132035 19 180 0.0 0.0 0.00 0.00 0.25 56
20260509131833 18 180 0.0 0.0 0.00 0.00 0.25 54
20260509131724 19 180 0.0 0.0 0.00 0.00 0.25 54
20260509131632 19 180 0.0 0.0 0.00 0.00 0.25 54
20260509131430 20 180 0.0 0.0 0.00 0.00 0.25 53
20260509131229 19 180 0.0 0.0 0.00 0.00 0.25 52
20260509131028 19 180 0.0 0.0 0.00 0.00 0.25 53
20260509130624 18 180 0.0 0.0 0.00 0.00 0.25 57
20260509130422 18 180 0.0 0.0 0.00 0.00 0.25 56
20260509130220 18 180 0.0 0.0 0.00 0.00 0.25 57
20260509130018 19 180 0.0 0.0 0.00 0.00 0.25 57
20260509125615 18 180 0.0 0.0 0.00 0.00 0.25 57
20260509125414 18 180 0.0 0.0 0.00 0.00 0.25 57
20260509125212 18 180 0.0 0.0 0.00 0.00 0.25 57
20260509124809 18 180 0.0 0.0 0.00 0.00 0.25 55
20260509124647 19 180 0.0 0.0 0.00 0.00 0.25 54
20260509124607 19 180 0.0 0.0 0.00 0.00 0.25 54
20260509124406 20 180 0.0 0.0 0.00 0.00 0.25 54
20260509124204 19 180 0.0 0.0 0.00 0.00 0.25 54
20260509124003 20 180 0.0 0.0 0.00 0.00 0.25 52
20260509123801 20 180 0.0 0.0 0.00 0.00 0.25 52
20260509123601 20 180 0.0 0.0 0.00 0.00 0.25 54
20260509123358 20 180 0.0 0.0 0.00 0.00 0.25 53
20260509123229 20 180 0.0 0.0 0.00 0.00 0.25 52
20260509123157 20 180 0.0 0.0 0.00 0.00 0.25 52
20260509122955 20 180 0.0 0.0 0.00 0.00 0.25 52
20260509122754 20 180 0.0 0.0 0.00 0.00 0.25 55
20260509122552 20 180 0.0 0.0 0.00 0.00 0.25 52
20260509122351 20 180 0.0 0.0 0.00 0.00 0.25 54
20260509122149 20 180 0.0 0.0 0.00 0.00 0.25 53
20260509121948 20 180 0.0 0.0 0.00 0.00 0.25 51
20260509121746 20 180 0.0 0.0 0.00 0.00 0.25 51
20260509121545 20 180 0.0 0.0 0.00 0.00 0.25 52
20260509121343 19 180 0.0 0.0 0.00 0.00 0.25 53
20260509121142 20 180 0.0 0.0 0.00 0.00 0.25 53
20260509121018 20 180 0.0 0.0 0.00 0.00 0.25 54
20260509120940 20 180 0.0 0.0 0.00 0.00 0.25 54
20260509120739 20 180 0.0 0.0 0.00 0.00 0.25 57
20260509120537 19 180 0.0 0.0 0.00 0.00 0.25 57
20260509120429 19 180 0.0 0.0 0.00 0.00 0.25 57
20260509120336 19 180 0.0 0.0 0.00 0.00 0.25 57
20260509120133 18 180 0.0 0.0 0.00 0.00 0.25 56
20260509115932 19 180 0.0 0.0 0.00 0.00 0.25 57
20260509115814 19 180 0.0 0.0 0.00 0.00 0.25 56
20260509115610 19 180 0.0 0.0 0.00 0.00 0.25 57
20260509115527 19 180 0.0 0.0 0.00 0.00 0.25 57
20260509115324 18 180 0.0 0.0 0.00 0.00 0.25 61
20260509115207 18 180 0.0 0.0 0.00 0.00 0.25 61
20260509115123 18 180 0.0 0.0 0.00 0.00 0.25 61
20260509114921 18 180 0.0 0.0 0.00 0.00 0.25 64
20260509114720 18 180 0.0 0.0 0.00 0.00 0.25 63
20260509114518 18 180 0.0 0.0 0.00 0.00 0.25 64
20260509114317 18 180 0.0 0.0 0.00 0.00 0.25 60
20260509114114 18 180 0.0 0.0 0.00 0.00 0.25 58
20260509113950 19 180 0.0 0.0 0.00 0.00 0.25 57
20260509113913 19 180 0.0 0.0 0.00 0.00 0.25 57
20260509113711 19 180 0.0 0.0 0.00 0.00 0.25 60
20260509113606 19 180 0.0 0.0 0.00 0.00 0.25 61
20260509113509 19 180 0.0 0.0 0.00 0.00 0.25 61
20260509113307 18 180 0.0 0.0 0.00 0.00 0.25 59
20260509113106 18 180 0.0 0.0 0.00 0.00 0.25 64
20260509112702 17 180 0.0 0.0 0.00 0.00 0.25 68
20260509112501 17 180 0.0 0.0 0.00 0.00 0.25 69
20260509112259 17 180 0.0 0.0 0.00 0.00 0.25 67
20260509112143 17 180 0.0 0.0 0.00 0.00 0.25 69
20260509112058 17 180 0.0 0.0 0.00 0.00 0.25 69
20260509111857 17 180 0.0 0.0 0.00 0.00 0.25 70
20260509111730 16 180 0.0 0.0 0.00 0.00 0.25 70
20260509111655 16 180 0.0 0.0 0.00 0.00 0.25 70
20260509111551 17 180 0.0 0.0 0.00 0.00 0.25 70
20260509111453 17 180 0.0 0.0 0.00 0.00 0.25 70
20260509111357 17 180 0.0 0.0 0.00 0.00 0.25 70
20260509111252 17 180 0.0 0.0 0.00 0.00 0.25 70
20260509110922 16 180 0.0 0.0 0.00 0.00 0.25 69
20260509110848 16 180 0.0 0.0 0.00 0.00 0.25 69
20260509110647 16 180 0.0 0.0 0.00 0.00 0.25 68
20260509110519 17 180 0.0 0.0 0.00 0.00 0.25 69
20260509110446 17 180 0.0 0.0 0.00 0.00 0.25 69
20260509110243 17 180 0.0 0.0 0.00 0.00 0.25 68
20260509110041 17 180 0.0 0.0 0.00 0.00 0.25 68
20260509105840 17 180 0.0 0.0 0.00 0.00 0.25 68
20260509105638 17 180 0.0 0.0 0.00 0.00 0.25 67
20260509105437 18 180 0.0 0.0 0.00 0.00 0.25 67
20260509105235 18 180 0.0 0.0 0.00 0.00 0.25 67
20260509105035 18 180 0.0 0.0 0.00 0.00 0.25 67
20260509104833 18 180 0.0 0.0 0.00 0.00 0.25 72
20260509104631 18 180 0.0 0.0 0.00 0.00 0.25 74
20260509104429 17 180 0.0 0.0 0.00 0.00 0.25 75
20260509104228 17 180 0.0 0.0 0.00 0.00 0.25 75
20260509104026 17 180 0.0 0.0 0.00 0.00 0.25 75
20260509103825 17 180 0.0 0.0 0.00 0.00 0.25 75
20260509103623 17 180 0.0 0.0 0.00 0.00 0.25 75
20260509103422 17 180 0.0 0.0 0.00 0.00 0.25 75
20260509103220 16 180 0.0 0.0 0.00 0.00 0.25 75
20260509103019 17 180 0.0 0.0 0.00 0.00 0.25 74
20260509102817 16 180 0.0 0.0 0.00 0.00 0.25 73
20260509102616 16 180 0.0 0.0 0.00 0.00 0.25 74
20260509102414 16 180 0.0 0.0 0.00 0.00 0.25 73
20260509102213 17 180 0.0 0.0 0.00 0.00 0.25 74
20260509102011 17 180 0.0 0.0 0.00 0.00 0.25 74
20260509101810 17 180 0.0 0.0 0.00 0.00 0.25 74
20260509101608 17 180 0.0 0.0 0.00 0.00 0.25 74
20260509101407 17 180 0.0 0.0 0.00 0.00 0.25 74
20260509101205 17 180 0.0 0.0 0.00 0.00 0.25 74
20260509101004 18 180 0.0 0.0 0.00 0.00 0.25 75
20260509100802 18 180 0.0 0.0 0.00 0.00 0.25 75
20260509100601 17 180 0.0 0.0 0.00 0.00 0.25 75
20260509100359 17 180 0.0 0.0 0.00 0.00 0.25 75
20260509100158 18 180 0.0 0.0 0.00 0.00 0.25 74
20260509100045 17 180 0.0 0.0 0.00 0.00 0.25 76
20260509095956 17 180 0.0 0.0 0.00 0.00 0.25 76
20260509095755 18 180 0.0 0.0 0.00 0.00 0.25 76
20260509095553 17 180 0.0 0.0 0.00 0.00 0.25 77
20260509095457 17 180 0.0 0.0 0.00 0.00 0.25 77
20260509095351 17 180 0.0 0.0 0.00 0.00 0.25 77
20260509095150 17 180 0.0 0.0 0.00 0.00 0.25 76
20260509094948 17 180 0.0 0.0 0.00 0.00 0.25 78
20260509094824 17 180 0.0 0.0 0.00 0.00 0.25 79
20260509094747 17 180 0.0 0.0 0.00 0.00 0.25 79
20260509094545 17 180 0.0 0.0 0.00 0.00 0.25 80
20260509094344 17 180 0.0 0.0 0.00 0.00 0.25 80
20260509094142 17 180 0.0 0.0 0.00 0.00 0.25 80
20260509094012 16 180 0.0 0.0 0.00 0.00 0.25 81
20260509093941 16 180 0.0 0.0 0.00 0.00 0.25 81
20260509093739 17 180 0.0 0.0 0.00 0.00 0.25 81
20260509093538 17 180 0.0 0.0 0.00 0.00 0.25 82
20260509093416 16 180 0.0 0.0 0.00 0.00 0.25 82
20260509093336 16 180 0.0 0.0 0.00 0.00 0.25 82
20260509093134 16 180 0.0 0.0 0.00 0.00 0.25 83
20260509093031 16 180 0.0 0.0 0.00 0.00 0.25 82
20260509092933 16 180 0.0 0.0 0.00 0.00 0.25 82
20260509092731 16 180 0.0 0.0 0.00 0.00 0.25 83
20260509092605 16 180 0.0 0.0 0.00 0.00 0.25 83
20260509092529 16 180 0.0 0.0 0.00 0.00 0.25 83
20260509092413 16 180 0.0 0.0 0.00 0.00 0.25 85
20260509092327 16 180 0.0 0.0 0.00 0.00 0.25 85
20260509092126 16 180 0.0 0.0 0.00 0.00 0.25 84
20260509091925 16 180 0.0 0.0 0.00 0.00 0.25 84
20260509091815 16 180 0.0 0.0 0.00 0.00 0.25 86
20260509091722 16 180 0.0 0.0 0.00 0.00 0.25 86
20260509091519 16 180 0.0 0.0 0.00 0.00 0.25 87
20260509091318 16 180 0.0 0.0 0.00 0.00 0.25 88
20260509091153 16 180 0.0 0.0 0.00 0.00 0.25 88
20260509091116 16 180 0.0 0.0 0.00 0.00 0.25 88
20260509090955 16 180 0.0 0.0 0.00 0.00 0.25 88
20260509090915 16 180 0.0 0.0 0.00 0.00 0.25 88
20260509090713 16 180 0.0 0.0 0.00 0.00 0.25 88
20260509090512 15 180 0.0 0.0 0.00 0.00 0.25 88
20260509090310 15 180 0.0 0.0 0.00 0.00 0.25 89
20260509090109 15 180 0.0 0.0 0.00 0.00 0.25 89
20260509085958 15 180 0.0 0.0 0.00 0.00 0.25 90
20260509085907 15 180 0.0 0.0 0.00 0.00 0.25 90
20260509085749 15 180 0.0 0.0 0.00 0.00 0.25 90
20260509085706 15 180 0.0 0.0 0.00 0.00 0.25 90
20260509085504 15 180 0.0 0.0 0.00 0.00 0.25 91
20260509085414 15 180 0.0 0.0 0.00 0.00 0.25 92
20260509085306 15 180 0.0 0.0 0.00 0.00 0.25 92
20260509085101 15 180 0.0 0.0 0.00 0.00 0.25 93
20260509084940 15 180 0.0 0.0 0.00 0.00 0.25 93
20260509084900 15 180 0.0 0.0 0.00 0.00 0.25 93
20260509084748 15 180 0.0 0.0 0.00 0.00 0.25 93
20260509084658 15 180 0.0 0.0 0.00 0.00 0.25 93
20260509084457 15 180 0.0 0.0 0.00 0.00 0.25 94
20260509084255 15 180 0.0 0.0 0.00 0.00 0.25 94
20260509084054 14 180 0.0 0.0 0.00 0.00 0.25 94
20260509083852 15 180 0.0 0.0 0.00 0.00 0.25 95
20260509083724 14 180 0.0 0.0 0.00 0.00 0.25 95
20260509083651 14 180 0.0 0.0 0.00 0.00 0.25 95
20260509083520 14 180 0.0 0.0 0.00 0.00 0.25 95
20260509083449 14 180 0.0 0.0 0.00 0.00 0.25 95
20260509083248 14 180 0.0 0.0 0.00 0.00 0.25 95
20260509083046 14 180 0.0 0.0 0.00 0.00 0.25 96
20260509083001 13 180 0.0 0.0 0.00 0.00 0.25 96
20260509082845 13 180 0.0 0.0 0.00 0.00 0.25 96
20260509082716 14 180 0.0 0.0 0.00 0.00 0.25 96
20260509082643 14 180 0.0 0.0 0.00 0.00 0.25 96
20260509082442 13 180 0.0 0.0 0.00 0.00 0.25 96
20260509082349 13 180 0.0 0.0 0.00 0.00 0.25 96
20260509082240 13 180 0.0 0.0 0.00 0.00 0.25 96
20260509082039 13 180 0.0 0.0 0.00 0.00 0.25 96
20260509081837 13 180 0.0 0.0 0.00 0.00 0.25 96
20260509081740 13 180 0.0 0.0 0.00 0.00 0.25 96
20260509081635 13 180 0.0 0.0 0.00 0.00 0.25 96
20260509081434 13 180 0.0 0.0 0.00 0.00 0.25 96
20260509081232 13 180 0.0 0.0 0.00 0.00 0.25 96
20260509081031 13 180 0.0 0.0 0.00 0.00 0.25 97
20260509080829 13 180 0.0 0.0 0.00 0.00 0.25 97
20260509080628 13 180 0.0 0.0 0.00 0.00 0.25 97
20260509080426 13 180 0.0 0.0 0.00 0.00 0.25 97
20260509080023 13 180 0.0 0.0 0.00 0.00 0.25 97
20260509075822 13 180 0.0 0.0 0.00 0.00 0.25 97
20260509075619 13 180 0.0 0.0 0.00 0.00 0.25 97
20260509075417 13 180 0.0 0.0 0.00 0.00 0.25 97
20260509075014 12 180 0.0 0.0 0.00 0.00 0.25 97
20260509074813 13 180 0.0 0.0 0.00 0.00 0.25 97
20260509074656 13 180 0.0 0.0 0.00 0.00 0.25 97
20260509074611 13 180 0.0 0.0 0.00 0.00 0.25 97
20260509074410 12 180 0.0 0.0 0.00 0.00 0.25 97
20260509074208 12 180 0.0 0.0 0.00 0.00 0.25 97
20260509074007 12 180 0.0 0.0 0.00 0.00 0.25 97
20260509073805 12 180 0.0 0.0 0.00 0.00 0.25 97
20260509073605 12 180 0.0 0.0 0.00 0.00 0.25 97
20260509073434 12 180 0.0 0.0 0.00 0.00 0.25 97
20260509073402 12 180 0.0 0.0 0.00 0.00 0.25 97
20260509073201 12 180 0.0 0.0 0.00 0.00 0.25 97
20260509072959 12 180 0.0 0.0 0.00 0.00 0.23 97
20260509072758 12 180 0.0 0.0 0.00 0.00 0.23 97
20260509072556 12 180 0.0 0.0 0.00 0.00 0.23 97
20260509072355 12 180 0.0 0.0 0.00 0.00 0.23 97
20260509072226 12 180 0.0 0.0 0.00 0.00 0.23 97
20260509072153 12 180 0.0 0.0 0.00 0.00 0.23 97
20260509071952 12 180 0.0 0.0 0.00 0.00 0.23 97
20260509071750 12 180 0.0 0.0 0.00 0.00 0.20 97
20260509071631 12 180 0.0 0.0 0.00 0.00 0.20 97
20260509071549 12 180 0.0 0.0 0.00 0.00 0.20 97
20260509071347 12 180 0.0 0.0 0.00 0.00 0.20 97
20260509071146 12 180 0.0 0.0 0.00 0.00 0.20 97
20260509070944 12 180 0.0 0.0 0.00 0.00 0.18 97
20260509070743 12 180 0.0 0.0 0.00 0.00 0.18 97
20260509070541 12 180 0.0 0.0 0.00 0.00 0.18 97
20260509070340 12 180 0.0 0.0 0.00 0.00 0.18 97
20260509070138 12 180 0.0 0.0 0.00 0.00 0.18 97
20260509065937 12 180 0.0 0.0 0.00 0.00 0.18 97
20260509065735 12 180 0.0 0.0 0.00 0.00 0.18 97
20260509065620 12 180 0.0 0.0 0.00 0.00 0.18 97
20260509065534 12 180 0.0 0.0 0.00 0.00 0.18 97
20260509065332 12 180 0.0 0.0 0.00 0.00 0.18 97
20260509065131 12 180 0.0 0.0 0.00 0.00 0.18 97
20260509064929 12 180 0.0 0.0 0.00 0.00 0.18 97
20260509064728 12 180 0.0 0.0 0.00 0.00 0.18 97
20260509064619 12 180 0.0 0.0 0.00 0.00 0.18 97
20260509064526 12 180 0.0 0.0 0.00 0.00 0.18 97
20260509064401 12 180 0.0 0.0 0.00 0.00 0.18 97
20260509064323 12 180 0.0 0.0 0.00 0.00 0.18 97
20260509064156 12 180 0.0 0.0 0.00 0.00 0.18 97
20260509064122 12 180 0.0 0.0 0.00 0.00 0.18 97
20260509064015 12 180 0.0 0.0 0.00 0.00 0.15 97
20260509063920 12 180 0.0 0.0 0.00 0.00 0.15 97
20260509063719 12 180 0.0 0.0 0.00 0.00 0.15 97
20260509063610 12 180 0.0 0.0 0.00 0.00 0.15 97
20260509063518 12 180 0.0 0.0 0.00 0.00 0.15 97
20260509063426 12 180 0.0 0.0 0.00 0.00 0.15 97
20260509063315 12 180 0.0 0.0 0.00 0.00 0.15 97
20260509063205 12 180 0.0 0.0 0.00 0.00 0.15 97
20260509063113 12 180 0.0 0.0 0.00 0.00 0.15 97
20260509062912 12 180 0.0 0.0 0.00 0.00 0.13 97
20260509062710 12 180 0.0 0.0 0.00 0.00 0.13 97
20260509062557 12 180 0.0 0.0 0.00 0.00 0.13 97
20260509062509 12 180 0.0 0.0 0.00 0.00 0.13 97
20260509062308 12 180 0.0 0.0 0.00 0.00 0.13 97
20260509062105 12 180 0.0 0.0 0.00 0.00 0.10 97
20260509061904 12 180 0.0 0.0 0.00 0.00 0.10 97
20260509061602 12 180 0.0 0.0 0.00 0.00 0.08 97
20260509061502 12 180 0.0 0.0 0.00 0.00 0.08 97
20260509061259 12 180 0.0 0.0 0.00 0.00 0.08 97
20260509061058 12 180 0.0 0.0 0.00 0.00 0.08 97
20260509060856 12 180 0.0 0.0 0.00 0.00 0.05 97
20260509060746 12 180 0.0 0.0 0.00 0.00 0.05 97
20260509060655 12 180 0.0 0.0 0.00 0.00 0.05 97
20260509060453 12 180 0.0 0.0 0.00 0.00 0.05 97
20260509060252 12 180 0.0 0.0 0.00 0.00 0.03 97
20260509060050 12 180 0.0 0.0 0.00 0.00 0.03 97
20260509055849 12 180 0.0 0.0 0.00 0.00 0.03 97
20260509055647 12 180 0.0 0.0 0.00 0.00 0.00 97
20260509055446 12 180 0.0 0.0 0.00 0.00 0.00 97
20260509055244 12 180 0.0 0.0 0.00 0.00 0.00 97
20260509055043 12 180 0.0 0.0 0.00 0.00 0.00 97
20260509054640 12 180 0.0 0.0 0.00 0.00 0.00 97
20260509054438 12 180 0.0 0.0 0.00 0.00 0.00 97
20260509054035 12 180 0.0 0.0 0.00 0.00 0.00 97
20260509053834 12 180 0.0 0.0 0.00 0.00 0.00 97
20260509053704 12 180 0.0 0.0 0.00 0.00 0.00 97
20260509053632 12 180 0.0 0.0 0.00 0.00 0.00 97
20260509053431 12 180 0.0 0.0 0.00 0.00 0.00 97
20260509053229 12 180 0.0 0.0 0.00 0.00 0.00 97
20260509053102 12 180 0.0 0.0 0.00 0.00 0.00 97
20260509053028 12 180 0.0 0.0 0.00 0.00 0.00 97
20260509052624 12 180 0.0 0.0 0.00 0.00 0.00 97
20260509052422 12 180 0.0 0.0 0.00 0.00 0.00 97
20260509052221 12 180 0.0 0.0 0.00 0.00 0.00 97
20260509052019 12 180 0.0 0.0 0.00 0.00 0.00 97
20260509051818 12 180 0.0 0.0 0.00 0.00 0.00 97
20260509051616 12 180 0.0 0.0 0.00 0.00 0.00 97
20260509051415 12 180 0.0 0.0 0.00 0.00 0.00 97
20260509051213 12 180 0.0 0.0 0.00 0.00 0.36 97
20260509050810 12 180 0.0 0.0 0.00 0.00 0.36 97
20260509050608 12 180 0.0 0.0 0.00 0.00 0.36 96
20260509050407 12 180 0.0 0.0 0.00 0.00 0.36 96
20260509050205 12 180 0.0 0.0 0.00 0.00 0.36 96
20260509045802 12 180 0.0 0.0 0.00 0.00 0.36 96
20260509045601 12 180 0.0 0.0 0.00 0.00 0.36 96
20260509045359 12 180 0.0 0.0 0.00 0.00 0.36 96
20260509045158 12 180 0.0 0.0 0.00 0.00 0.36 96
20260509044956 12 180 0.0 0.0 0.00 0.00 0.36 96
20260509044754 12 180 0.0 0.0 0.00 0.00 0.36 96
20260509044553 12 180 0.0 0.0 0.00 0.00 0.36 96
20260509044351 12 180 0.0 0.0 0.00 0.00 0.36 96
20260509044150 12 180 0.0 0.0 0.00 0.00 0.36 96
20260509043948 12 180 0.0 0.0 0.00 0.00 0.36 96
20260509043747 12 180 0.0 0.0 0.00 0.00 0.36 95
20260509043619 12 180 0.0 0.0 0.00 0.00 0.36 95
20260509043545 12 180 0.0 0.0 0.00 0.00 0.36 95
20260509043344 12 180 0.0 0.0 0.00 0.00 0.36 95
20260509043142 12 180 0.0 0.0 0.00 0.00 0.36 95
20260509043032 12 180 0.0 0.0 0.00 0.00 0.36 95
20260509042941 12 180 0.0 0.0 0.00 0.00 0.36 95
20260509042740 12 180 0.0 0.0 0.00 0.00 0.36 95
20260509042538 12 180 0.0 0.0 0.00 0.00 0.36 95
20260509042430 12 180 0.0 0.0 0.00 0.00 0.36 95
20260509042337 12 180 0.0 0.0 0.00 0.00 0.36 95
20260509042221 12 180 0.0 0.0 0.00 0.00 0.36 95
20260509042134 12 180 0.0 0.0 0.00 0.00 0.36 95
20260509042006 13 180 0.0 0.0 0.00 0.00 0.36 95
20260509041932 13 180 0.0 0.0 0.00 0.00 0.36 95
20260509041828 12 180 0.0 0.0 0.00 0.00 0.36 95
20260509041731 12 180 0.0 0.0 0.00 0.00 0.36 95
20260509041603 12 180 0.0 0.0 0.00 0.00 0.36 94
20260509041529 12 180 0.0 0.0 0.00 0.00 0.36 94
20260509041328 13 180 0.0 0.0 0.00 0.00 0.33 94
20260509041215 12 180 0.0 0.0 0.00 0.00 0.33 94
20260509041127 12 180 0.0 0.0 0.00 0.00 0.33 94
20260509041002 12 180 0.0 0.0 0.00 0.00 0.33 94
20260509040925 12 180 0.0 0.0 0.00 0.00 0.33 94
20260509040723 12 180 0.0 0.0 0.00 0.00 0.30 93
20260509040642 12 180 0.0 0.0 0.00 0.00 0.30 93
20260509040522 12 180 0.0 0.0 0.00 0.00 0.30 93
20260509040320 12 180 0.0 0.0 0.00 0.00 0.28 93
20260509040154 12 180 0.0 0.0 0.00 0.00 0.25 93
20260509040119 12 180 0.0 0.0 0.00 0.00 0.25 93
20260509040011 12 180 0.0 0.0 0.00 0.00 0.25 92
20260509035917 12 180 0.0 0.0 0.00 0.00 0.25 92
20260509035802 12 180 0.0 0.0 0.00 0.00 0.25 92
20260509035715 12 180 0.0 0.0 0.00 0.00 0.25 92
20260509035513 12 180 0.0 0.0 0.00 0.00 0.25 92
20260509035412 12 180 0.0 0.0 0.00 0.00 0.25 92
20260509035312 12 180 0.0 0.0 0.00 0.00 0.25 92
20260509035110 12 180 0.0 0.0 0.00 0.00 0.25 91
20260509035002 12 180 0.0 0.0 0.00 0.00 0.25 91
20260509034909 12 180 0.0 0.0 0.00 0.00 0.25 91
20260509034800 12 180 0.0 0.0 0.00 0.00 0.25 90
20260509034706 12 180 0.0 0.0 0.00 0.00 0.25 90
20260509034505 13 180 0.0 0.0 0.00 0.00 0.25 90
20260509034303 12 180 0.0 0.0 0.00 0.00 0.23 89
20260509034148 13 180 0.0 0.0 0.00 0.00 0.18 89
20260509034102 13 180 0.0 0.0 0.00 0.00 0.18 89
20260509033900 12 180 0.0 0.0 0.00 0.00 0.18 89
20260509033658 12 180 0.0 0.0 0.00 0.00 0.18 89
20260509033514 12 180 0.0 0.0 0.00 0.00 0.18 89
20260509033256 12 180 0.0 0.0 0.00 0.00 0.18 89
20260509033054 12 180 0.0 0.0 0.00 0.00 0.18 89
20260509032934 12 180 0.0 0.0 0.00 0.00 0.18 89
20260509032651 12 180 0.0 0.0 0.00 0.00 0.18 88
20260509032449 12 180 0.0 0.0 0.00 0.00 0.18 88
20260509032248 12 180 0.0 0.0 0.00 0.00 0.18 88
20260509032046 12 180 0.0 0.0 0.00 0.00 0.18 88
20260509031845 12 180 0.0 0.0 0.00 0.00 0.18 88
20260509031731 12 180 0.0 0.0 0.00 0.00 0.18 88
20260509031644 12 180 0.0 0.0 0.00 0.00 0.18 88
20260509031442 12 180 0.0 0.0 0.00 0.00 0.18 88
20260509031240 12 180 0.0 0.0 0.00 0.00 0.18 88
20260509031038 12 180 0.0 0.0 0.00 0.00 0.18 88
20260509030837 12 180 0.0 0.0 0.00 0.00 0.18 88
20260509030635 12 180 0.0 0.0 0.00 0.00 0.18 89
20260509030513 12 180 0.0 0.0 0.00 0.00 0.18 89
20260509030434 12 180 0.0 0.0 0.00 0.00 0.18 89
20260509030232 12 180 0.0 0.0 0.00 0.00 0.18 89
20260509030031 12 180 0.0 0.0 0.00 0.00 0.18 89
20260509025425 12 180 0.0 0.0 0.00 0.00 0.18 88
20260509025224 12 180 0.0 0.0 0.00 0.00 0.18 88
20260509025022 12 180 0.0 0.0 0.00 0.00 0.18 88
20260509024853 12 180 0.0 0.0 0.00 0.00 0.18 88
20260509024821 12 180 0.0 0.0 0.00 0.00 0.18 88
20260509024619 12 180 0.0 0.0 0.00 0.00 0.18 88
20260509024418 12 180 0.0 0.0 0.00 0.00 0.18 88
20260509024216 12 180 0.0 0.0 0.00 0.00 0.18 88
20260509024015 12 180 0.0 0.0 0.00 0.00 0.18 88
20260509023814 12 180 0.0 0.0 0.00 0.00 0.18 88
20260509023612 12 180 0.0 0.0 0.00 0.00 0.18 88
20260509023410 12 180 0.0 0.0 0.00 0.00 0.18 88
20260509023209 12 180 0.0 0.0 0.00 0.00 0.18 88
20260509023007 12 180 0.0 0.0 0.00 0.00 0.18 88
20260509022604 12 180 0.0 0.0 0.00 0.00 0.18 88
20260509022403 12 180 0.0 0.0 0.00 0.00 0.18 88
20260509022201 12 180 0.0 0.0 0.00 0.00 0.18 88
20260509022000 12 180 0.0 0.0 0.00 0.00 0.18 88
20260509021758 12 180 0.0 0.0 0.00 0.00 0.18 88
20260509021557 12 180 0.0 0.0 0.00 0.00 0.18 88
20260509021355 12 180 0.0 0.0 0.00 0.00 0.18 88
20260509021154 12 180 0.0 0.0 0.00 0.00 0.18 87
20260509020952 12 180 0.0 0.0 0.00 0.00 0.18 87
20260509020826 12 180 0.0 0.0 0.00 0.00 0.18 87
20260509020751 12 180 0.0 0.0 0.00 0.00 0.18 87
20260509020549 12 180 0.0 0.0 0.00 0.00 0.18 87
20260509020348 12 180 0.0 0.0 0.00 0.00 0.18 87
20260509015944 12 180 0.0 0.0 0.00 0.00 0.18 87
20260509015743 12 180 0.0 0.0 0.00 0.00 0.18 86
20260509015636 13 180 0.0 0.0 0.00 0.00 0.18 86
20260509015541 13 180 0.0 0.0 0.00 0.00 0.18 86
20260509015340 12 180 0.0 0.0 0.00 0.00 0.18 86
20260509015138 12 180 0.0 0.0 0.00 0.00 0.18 86
20260509014828 12 180 0.0 0.0 0.00 0.00 0.18 86
20260509014735 12 180 0.0 0.0 0.00 0.00 0.18 86
20260509014534 12 180 0.0 0.0 0.00 0.00 0.18 86
20260509014332 12 180 0.0 0.0 0.00 0.00 0.18 86
20260509014131 12 180 0.0 0.0 0.00 0.00 0.18 86
20260509013929 12 180 0.0 0.0 0.00 0.00 0.18 86
20260509013728 12 180 0.0 0.0 0.00 0.00 0.18 85
20260509013526 12 180 0.0 0.0 0.00 0.00 0.18 85
20260509013322 12 180 0.0 0.0 0.00 0.00 0.18 85
20260509013227 12 180 0.0 0.0 0.00 0.00 0.18 85
20260509013121 12 180 0.0 0.0 0.00 0.00 0.18 85
20260509012718 12 180 0.0 0.0 0.00 0.00 0.18 85
20260509012517 13 180 0.0 0.0 0.00 0.00 0.18 85
20260509012315 13 180 0.0 0.0 0.00 0.00 0.18 85
20260509012113 12 180 0.0 0.0 0.00 0.00 0.18 85
20260509011912 13 180 0.0 0.0 0.00 0.00 0.18 85
20260509011746 12 180 0.0 0.0 0.00 0.00 0.18 85
20260509011710 12 180 0.0 0.0 0.00 0.00 0.18 85
20260509011509 12 180 0.0 0.0 0.00 0.00 0.18 85
20260509011347 12 180 0.0 0.0 0.00 0.00 0.18 85
20260509011307 12 180 0.0 0.0 0.00 0.00 0.18 85
20260509011106 13 180 0.0 0.0 0.00 0.00 0.18 85
20260509010904 13 180 0.0 0.0 0.00 0.00 0.18 85
20260509010703 12 180 0.0 0.0 0.00 0.00 0.18 85
20260509010500 13 180 0.0 0.0 0.00 0.00 0.18 85
20260509010259 12 180 0.0 0.0 0.00 0.00 0.18 85
20260509010132 12 180 0.0 0.0 0.00 0.00 0.18 85
20260509010058 12 180 0.0 0.0 0.00 0.00 0.18 85
20260509005856 12 180 0.0 0.0 0.00 0.00 0.18 86
20260509005654 13 180 0.0 0.0 0.00 0.00 0.18 86
20260509005526 13 180 0.0 0.0 0.00 0.00 0.18 86
20260509005453 13 180 0.0 0.0 0.00 0.00 0.18 86
20260509005251 12 180 0.0 0.0 0.00 0.00 0.18 86
20260509004922 12 180 0.0 0.0 0.00 0.00 0.18 87
20260509004848 12 180 0.0 0.0 0.00 0.00 0.18 87
20260509004720 12 180 0.0 0.0 0.00 0.00 0.18 87
20260509004647 12 180 0.0 0.0 0.00 0.00 0.18 87
20260509004445 13 180 0.0 0.0 0.00 0.00 0.18 87
20260509004245 13 180 0.0 0.0 0.00 0.00 0.18 88
20260509004042 12 180 0.0 0.0 0.00 0.00 0.18 88
20260509003841 12 180 0.0 0.0 0.00 0.00 0.18 88
20260509003438 12 180 0.0 0.0 0.00 0.00 0.18 88
20260509003236 12 180 0.0 0.0 0.00 0.00 0.18 88
20260509003035 13 180 0.0 0.0 0.00 0.00 0.18 88
20260509002833 12 180 0.0 0.0 0.00 0.00 0.18 88
20260509002630 13 180 0.0 0.0 0.00 0.00 0.18 88
20260509002516 12 180 0.0 0.0 0.00 0.00 0.18 88
20260509002428 12 180 0.0 0.0 0.00 0.00 0.18 88
20260509002226 13 180 0.0 0.0 0.00 0.00 0.18 87
20260509002025 13 180 0.0 0.0 0.00 0.00 0.18 87
20260509001907 13 180 0.0 0.0 0.00 0.00 0.18 87
20260509001823 13 180 0.0 0.0 0.00 0.00 0.18 87
20260509001659 12 180 0.0 0.0 0.00 0.00 0.18 87
20260509001622 12 180 0.0 0.0 0.00 0.00 0.18 87
20260509001420 13 180 0.0 0.0 0.00 0.00 0.18 87
20260509001308 13 180 0.0 0.0 0.00 0.00 0.18 87
20260509001219 13 180 0.0 0.0 0.00 0.00 0.18 87
20260509001017 13 180 0.0 0.0 0.00 0.00 0.18 86
20260509000816 13 180 0.0 0.0 0.00 0.00 0.18 86
20260509000705 13 180 0.0 0.0 0.00 0.00 0.18 86
20260509000614 13 180 0.0 0.0 0.00 0.00 0.18 86
20260509000413 13 180 0.0 0.0 0.00 0.00 0.18 86
20260509000212 13 180 0.0 0.0 0.00 0.00 0.18 86
20260509000046 13 180 0.0 0.0 0.00 0.00 0.18 86
20260509000009 13 180 0.0 0.0 0.00 0.00 0.18 86
20260508235808 13 180 0.0 0.0 0.00 0.00 0.18 86
20260508235444 13 180 0.0 0.0 0.00 0.00 0.18 86
20260508235404 13 180 0.0 0.0 0.00 0.00 0.18 86
20260508235202 13 180 0.0 0.0 0.00 0.00 0.18 86
20260508235002 13 180 0.0 0.0 0.00 0.00 0.18 86
20260508234844 13 180 0.0 0.0 0.00 0.00 0.18 86
20260508234759 13 180 0.0 0.0 0.00 0.00 0.18 86
20260508234631 13 180 0.0 0.0 0.00 0.00 0.18 86
20260508234558 13 180 0.0 0.0 0.00 0.00 0.18 86
20260508234356 13 180 0.0 0.0 0.00 0.00 0.18 86
20260508234239 13 180 0.0 0.0 0.00 0.00 0.18 86
20260508234155 13 180 0.0 0.0 0.00 0.00 0.18 86
20260508233752 13 180 0.0 0.0 0.00 0.00 0.18 86
20260508233647 13 180 0.0 0.0 0.00 0.00 0.18 86
20260508233550 13 180 0.0 0.0 0.00 0.00 0.18 86
20260508233349 13 180 0.0 0.0 0.00 0.00 0.18 86
20260508233147 13 180 0.0 0.0 0.00 0.00 0.18 86
20260508233058 13 180 0.0 0.0 0.00 0.00 0.18 87
20260508232946 13 180 0.0 0.0 0.00 0.00 0.18 87
20260508232744 13 180 0.0 0.0 0.00 0.00 0.18 87
20260508232543 13 180 0.0 0.0 0.00 0.00 0.18 87
20260508232429 13 180 0.0 0.0 0.00 0.00 0.18 87
20260508232342 13 180 0.0 0.0 0.00 0.00 0.18 87
20260508232139 13 180 0.0 0.0 0.00 0.00 0.18 87
20260508231937 13 180 0.0 0.0 0.00 0.00 0.18 87
20260508231534 13 180 0.0 0.0 0.00 0.00 0.18 88
20260508231333 13 180 0.0 0.0 0.00 0.00 0.18 88
20260508231131 13 180 0.0 0.0 0.00 0.00 0.18 88
20260508231001 13 180 0.0 0.0 0.00 0.00 0.18 88
20260508230930 13 180 0.0 0.0 0.00 0.00 0.18 88
20260508230728 13 180 0.0 0.0 0.00 0.00 0.18 88
20260508230626 13 180 0.0 0.0 0.00 0.00 0.18 88
20260508230527 13 180 0.0 0.0 0.00 0.00 0.18 88
20260508230325 13 180 0.0 0.0 0.00 0.00 0.18 88
20260508230124 13 180 0.0 0.0 0.00 0.00 0.18 88
20260508230023 13 180 0.0 0.0 0.00 0.00 0.18 88
20260508225922 13 180 0.0 0.0 0.00 0.00 0.18 88
20260508225825 13 180 0.0 0.0 0.00 0.00 0.18 87
20260508225721 13 180 0.0 0.0 0.00 0.00 0.18 87
20260508225519 13 180 0.0 0.0 0.00 0.00 0.18 87
20260508225318 13 180 0.0 0.0 0.00 0.00 0.18 87
20260508225116 13 180 0.0 0.0 0.00 0.00 0.18 87
20260508224946 13 180 0.0 0.0 0.00 0.00 0.18 87
20260508224915 13 180 0.0 0.0 0.00 0.00 0.18 87
20260508224807 13 180 0.0 0.0 0.00 0.00 0.18 87
20260508224713 13 180 0.0 0.0 0.00 0.00 0.18 87
20260508224511 13 180 0.0 0.0 0.00 0.00 0.18 87
20260508224310 13 180 0.0 0.0 0.00 0.00 0.18 87
20260508224210 13 180 0.0 0.0 0.00 0.00 0.18 87
20260508224109 13 180 0.0 0.0 0.00 0.00 0.18 87
20260508223907 13 180 0.0 0.0 0.00 0.00 0.18 87
20260508223802 13 180 0.0 0.0 0.00 0.00 0.18 87
20260508223705 13 180 0.0 0.0 0.00 0.00 0.18 87
20260508223550 13 180 0.0 0.0 0.00 0.00 0.18 87
20260508223504 13 180 0.0 0.0 0.00 0.00 0.18 87
20260508223303 13 180 0.0 0.0 0.00 0.00 0.18 87
20260508223101 13 180 0.0 0.0 0.00 0.00 0.18 87
20260508222859 13 180 0.0 0.0 0.00 0.00 0.18 87
20260508222732 13 180 0.0 0.0 0.00 0.00 0.18 87
20260508222657 13 180 0.0 0.0 0.00 0.00 0.18 87
20260508222549 13 180 0.0 0.0 0.00 0.00 0.18 87
20260508222456 13 180 0.0 0.0 0.00 0.00 0.18 87
20260508222254 13 180 0.0 0.0 0.00 0.00 0.18 87
20260508222053 13 180 0.0 0.0 0.00 0.00 0.18 87
20260508221851 13 180 0.0 0.0 0.00 0.00 0.18 87
20260508221751 13 180 0.0 0.0 0.00 0.00 0.18 87
20260508221650 13 180 0.0 0.0 0.00 0.00 0.18 87
20260508221534 13 180 0.0 0.0 0.00 0.00 0.18 87
20260508221448 13 180 0.0 0.0 0.00 0.00 0.18 87
20260508221247 13 180 0.0 0.0 0.00 0.00 0.18 87
20260508221045 13 180 0.0 0.0 0.00 0.00 0.18 87
20260508220844 13 180 0.0 0.0 0.00 0.00 0.18 86
20260508220714 13 180 0.0 0.0 0.00 0.00 0.18 86
20260508220642 13 180 0.0 0.0 0.00 0.00 0.18 86
20260508220441 13 180 0.0 0.0 0.00 0.00 0.18 86
20260508220239 13 180 0.0 0.0 0.00 0.00 0.18 87
20260508220038 13 180 0.0 0.0 0.00 0.00 0.18 87
20260508215836 13 180 0.0 0.0 0.00 0.00 0.18 88
20260508215635 13 180 0.0 0.0 0.00 0.00 0.18 89
20260508215433 13 180 0.0 0.0 0.00 0.00 0.18 88
20260508215232 13 180 0.0 0.0 0.00 0.00 0.18 88
20260508215030 13 180 0.0 0.0 0.00 0.00 0.18 88
20260508214829 13 180 0.0 0.0 0.00 0.00 0.18 89
20260508214627 13 180 0.0 0.0 0.00 0.00 0.18 88
20260508214426 13 180 0.0 0.0 0.00 0.00 0.18 88
20260508214224 13 180 0.0 0.0 0.00 0.00 0.18 88
20260508214023 13 180 0.0 0.0 0.00 0.00 0.18 88
20260508213821 13 180 0.0 0.0 0.00 0.00 0.18 87
20260508213659 14 180 0.0 0.0 0.00 0.00 0.15 87
20260508213620 14 180 0.0 0.0 0.00 0.00 0.15 87
20260508213418 14 180 0.0 0.0 0.00 0.00 0.15 87
20260508213217 14 180 0.0 0.0 0.00 0.00 0.15 87
20260508213015 14 180 0.0 0.0 0.00 0.00 0.15 86
20260508212814 14 180 0.0 0.0 0.00 0.00 0.15 86
20260508212612 14 180 0.0 0.0 0.00 0.00 0.15 86
20260508212503 15 180 0.0 0.0 0.00 0.00 0.15 86
20260508212411 15 180 0.0 0.0 0.00 0.00 0.15 86
20260508212209 14 180 0.0 0.0 0.00 0.00 0.15 86
20260508212008 15 180 0.0 0.0 0.00 0.00 0.13 86
20260508211806 14 180 0.0 0.0 0.00 0.00 0.13 86
20260508211605 15 180 0.0 0.0 0.00 0.00 0.13 85
20260508211435 15 180 0.0 0.0 0.00 0.00 0.13 85
20260508211403 15 180 0.0 0.0 0.00 0.00 0.13 85
20260508211202 14 180 0.0 0.0 0.00 0.00 0.13 85
20260508211000 15 180 0.0 0.0 0.00 0.00 0.13 85
20260508210831 15 180 0.0 0.0 0.00 0.00 0.13 85
20260508210758 15 180 0.0 0.0 0.00 0.00 0.13 85
20260508210557 15 180 0.0 0.0 0.00 0.00 0.10 85
20260508210355 15 180 0.0 0.0 0.00 0.00 0.10 84
20260508210226 15 180 0.0 0.0 0.00 0.00 0.10 84
20260508210154 15 180 0.0 0.0 0.00 0.00 0.10 84
20260508205952 15 180 0.0 0.0 0.00 0.00 0.10 84
20260508205751 15 180 0.0 0.0 0.00 0.00 0.10 84
20260508205549 15 180 0.0 0.0 0.00 0.00 0.10 84
20260508205348 15 180 0.0 0.0 0.00 0.00 0.10 84
20260508205146 15 180 0.0 0.0 0.00 0.00 0.10 83
20260508204944 15 180 0.0 0.0 0.00 0.00 0.08 83
20260508204743 15 180 0.0 0.0 0.00 0.00 0.08 83
20260508204541 15 180 0.0 0.0 0.00 0.00 0.08 83
20260508204138 15 180 0.0 0.0 0.00 0.00 0.08 81
20260508203937 15 180 0.0 0.0 0.00 0.00 0.08 81
20260508203809 16 180 0.0 0.0 0.00 0.00 0.08 81
20260508203735 16 180 0.0 0.0 0.00 0.00 0.08 81
20260508203534 15 180 0.0 0.0 0.00 0.00 0.08 80
20260508203438 15 180 0.0 0.0 0.00 0.00 0.08 80
20260508203332 15 180 0.0 0.0 0.00 0.00 0.08 80
20260508203131 16 180 0.0 0.0 0.00 0.00 0.08 80
20260508203023 16 180 0.0 0.0 0.00 0.00 0.08 80
20260508202930 16 180 0.0 0.0 0.00 0.00 0.08 80
20260508202727 16 180 0.0 0.0 0.00 0.00 0.08 79
20260508202525 16 180 0.0 0.0 0.00 0.00 0.08 79
20260508202324 16 180 0.0 0.0 0.00 0.00 0.05 78
20260508202122 16 180 0.0 0.0 0.00 0.00 0.05 78
20260508201720 16 180 0.0 0.0 0.00 0.00 0.05 78
20260508201518 16 180 0.0 0.0 0.00 0.00 0.05 78
20260508201349 16 180 0.0 0.0 0.00 0.00 0.05 77
20260508201316 16 180 0.0 0.0 0.00 0.00 0.05 77
20260508201115 16 180 0.0 0.0 0.00 0.00 0.05 77
20260508200913 16 180 0.0 0.0 0.00 0.00 0.05 77
20260508200712 16 180 0.0 0.0 0.00 0.00 0.05 77
20260508200554 16 180 0.0 0.0 0.00 0.00 0.05 77
20260508200510 16 180 0.0 0.0 0.00 0.00 0.05 77
20260508200309 16 180 0.0 0.0 0.00 0.00 0.05 77
20260508200144 16 180 0.0 0.0 0.00 0.00 0.05 77
20260508200107 16 180 0.0 0.0 0.00 0.00 0.05 77
20260508195704 16 180 0.0 0.0 0.00 0.00 0.05 77
20260508195503 16 180 0.0 0.0 0.00 0.00 0.05 77
20260508195301 16 180 0.0 0.0 0.00 0.00 0.05 77
20260508195100 16 180 0.0 0.0 0.00 0.00 0.05 77
20260508194858 16 180 0.0 0.0 0.00 0.00 0.05 77
20260508194657 16 180 0.0 0.0 0.00 0.00 0.05 77
20260508194455 16 180 0.0 0.0 0.00 0.00 0.05 77
20260508194254 16 180 0.0 0.0 0.00 0.00 0.05 77
20260508194052 16 180 0.0 0.0 0.00 0.00 0.05 77
20260508193851 16 180 0.0 0.0 0.00 0.00 0.05 76
20260508193649 16 180 0.0 0.0 0.00 0.00 0.05 76
20260508193447 16 180 0.0 0.0 0.00 0.00 0.05 76
20260508193246 16 180 0.0 0.0 0.00 0.00 0.05 75
20260508193128 17 180 0.0 0.0 0.00 0.00 0.05 75
20260508193044 17 180 0.0 0.0 0.00 0.00 0.05 75
20260508192843 17 180 0.0 0.0 0.00 0.00 0.03 74
20260508192641 17 180 0.0 0.0 0.00 0.00 0.03 72
20260508192440 17 180 0.0 0.0 0.00 0.00 0.03 71
20260508192238 16 180 0.0 0.0 0.00 0.00 0.03 71
20260508192036 17 180 0.0 0.0 0.00 0.00 0.03 70
20260508191930 17 180 0.0 0.0 0.00 0.00 0.03 69
20260508191835 17 180 0.0 0.0 0.00 0.00 0.03 69
20260508191632 17 180 0.0 0.0 0.00 0.00 0.03 69
20260508191431 17 180 0.0 0.0 0.00 0.00 0.03 68
20260508191316 17 180 0.0 0.0 0.00 0.00 0.03 67
20260508191229 17 180 0.0 0.0 0.00 0.00 0.03 67
20260508191122 17 180 0.0 0.0 0.00 0.00 0.00 66
20260508191028 17 180 0.0 0.0 0.00 0.00 0.00 66
20260508190826 17 180 0.0 0.0 0.00 0.00 0.00 65
20260508190625 18 180 0.0 0.0 0.00 0.00 0.00 64
20260508190423 18 180 0.0 0.0 0.00 0.00 0.00 63
20260508190223 18 180 0.0 0.0 0.00 0.00 0.00 61
20260508190055 18 180 0.0 0.0 0.00 0.00 0.00 60
20260508190021 18 180 0.0 0.0 0.00 0.00 0.00 60
20260508185819 18 180 0.0 0.0 0.00 0.00 0.00 59
20260508185617 18 180 0.0 0.0 0.00 0.00 0.00 58
20260508185512 18 180 0.0 0.0 0.00 0.00 0.00 56
20260508185416 18 180 0.0 0.0 0.00 0.00 0.00 56
20260508185214 19 180 0.0 0.0 0.00 0.00 0.00 54
20260508185014 18 180 0.0 0.0 0.00 0.00 0.00 51
20260508184845 19 180 0.0 0.0 0.00 0.00 0.00 50
20260508184811 19 180 0.0 0.0 0.00 0.00 0.00 50
20260508184610 20 180 0.0 0.0 0.00 0.00 0.00 50
20260508184408 20 180 0.0 0.0 0.00 0.00 0.00 50
20260508184217 20 180 0.0 0.0 0.00 0.00 0.00 49
20260508184005 20 180 0.0 0.0 0.00 0.00 0.00 48
20260508183804 20 180 0.0 0.0 0.00 0.00 0.00 48
20260508183622 19 180 0.0 0.0 0.00 0.00 0.00 48
20260508183401 20 180 0.0 0.0 0.00 0.00 0.00 48
20260508183159 20 180 0.0 0.0 0.00 0.00 0.00 48
20260508183042 20 180 0.0 0.0 0.00 0.00 0.00 48
20260508182958 20 180 0.0 0.0 0.00 0.00 0.00 48
20260508182756 19 180 0.0 0.0 0.00 0.00 0.00 47
20260508182555 20 180 0.0 0.0 0.00 0.00 0.00 47
20260508182353 20 180 0.0 0.0 0.00 0.00 0.00 47
20260508182152 20 180 0.0 0.0 0.00 0.00 0.00 47
20260508181950 20 180 0.0 0.0 0.00 0.00 0.00 46
20260508181826 20 180 0.0 0.0 0.00 0.00 0.00 46
20260508181749 20 180 0.0 0.0 0.00 0.00 0.00 46
20260508181547 20 180 0.0 0.0 0.00 0.00 0.00 46
20260508181346 20 180 0.0 0.0 0.00 0.00 0.00 46
20260508181144 20 180 0.0 0.0 0.00 0.00 0.00 46
20260508180943 20 180 0.0 0.0 0.00 0.00 0.00 46
20260508180741 20 180 0.0 0.0 0.00 0.00 0.00 46
20260508180619 20 180 0.0 0.0 0.00 0.00 0.00 46
20260508180540 20 180 0.0 0.0 0.00 0.00 0.00 46
20260508180338 20 180 0.0 0.0 0.00 0.00 0.00 46
20260508180207 20 180 0.0 0.0 0.00 0.00 0.00 46
20260508180136 20 180 0.0 0.0 0.00 0.00 0.00 46
20260508180020 20 180 0.0 0.0 0.00 0.00 0.00 46
20260508175935 20 180 0.0 0.0 0.00 0.00 0.00 46
20260508175810 20 180 0.0 0.0 0.00 0.00 0.00 45
20260508175734 20 180 0.0 0.0 0.00 0.00 0.00 45
20260508175531 20 180 0.0 0.0 0.00 0.00 0.00 46
20260508175432 20 180 0.0 0.0 0.00 0.00 0.00 46
20260508175329 20 180 0.0 0.0 0.00 0.00 0.00 46
20260508175128 21 180 0.0 0.0 0.00 0.00 0.00 45
20260508175009 20 180 0.0 0.0 0.00 0.00 0.00 45
20260508174926 20 180 0.0 0.0 0.00 0.00 0.00 45
20260508174725 20 180 0.0 0.0 0.00 0.00 0.00 45
20260508174557 21 180 0.0 0.0 0.00 0.00 0.00 45
20260508174523 21 180 0.0 0.0 0.00 0.00 0.00 45
20260508174321 20 180 0.0 0.0 0.00 0.00 0.00 45
20260508174208 20 180 0.0 0.0 0.00 0.00 0.00 45
20260508174120 20 180 0.0 0.0 0.00 0.00 0.00 45
20260508173919 20 180 0.0 0.0 0.00 0.00 0.00 44
20260508173716 21 180 0.0 0.0 0.00 0.00 0.00 44
20260508173515 21 180 0.0 0.0 0.00 0.00 0.00 43
20260508173313 21 180 0.0 0.0 0.00 0.00 0.00 42
20260508173111 21 180 0.0 0.0 0.00 0.00 0.00 42
20260508172954 21 180 0.0 0.0 0.00 0.00 0.00 42
20260508172910 21 180 0.0 0.0 0.00 0.00 0.00 42
20260508172708 21 180 0.0 0.0 0.00 0.00 0.00 42
20260508172507 21 180 0.0 0.0 0.00 0.00 0.00 42
20260508172307 21 180 0.0 0.0 0.00 0.00 0.00 41
20260508172104 21 180 0.0 0.0 0.00 0.00 0.00 41
20260508171902 21 180 0.0 0.0 0.00 0.00 0.00 41
20260508171732 21 180 0.0 0.0 0.00 0.00 0.00 41
20260508171701 21 180 0.0 0.0 0.00 0.00 0.00 41
20260508171459 21 180 0.0 0.0 0.00 0.00 0.00 41
20260508171258 21 180 0.0 0.0 0.00 0.00 0.00 40
20260508171056 22 180 0.0 0.0 0.00 0.00 0.00 41
20260508170855 21 180 0.0 0.0 0.00 0.00 0.00 41
20260508170653 21 180 0.0 0.0 0.00 0.00 0.00 40
20260508170525 21 180 0.0 0.0 0.00 0.00 0.00 41
20260508170451 21 180 0.0 0.0 0.00 0.00 0.00 41
20260508170250 21 180 0.0 0.0 0.00 0.00 0.00 40
20260508170048 21 180 0.0 0.0 0.00 0.00 0.00 40
20260508165846 21 180 0.0 0.0 0.00 0.00 0.00 40
20260508165645 21 180 0.0 0.0 0.00 0.00 0.00 40
20260508165443 21 180 0.0 0.0 0.00 0.00 0.00 40
20260508165242 21 180 0.0 0.0 0.00 0.00 0.00 40
20260508165039 21 180 0.0 0.0 0.00 0.00 0.00 39
20260508164838 21 180 0.0 0.0 0.00 0.00 0.00 39
20260508164636 22 180 0.0 0.0 0.00 0.00 0.00 38
20260508164435 22 180 0.0 0.0 0.00 0.00 0.00 38
20260508164233 22 180 0.0 0.0 0.00 0.00 0.00 38
20260508164032 22 180 0.0 0.0 0.00 0.00 0.00 37
20260508163629 22 180 0.0 0.0 0.00 0.00 0.00 37
20260508163427 22 180 0.0 0.0 0.00 0.00 0.00 37
20260508163024 22 180 0.0 0.0 0.00 0.00 0.00 37
20260508162823 22 180 0.0 0.0 0.00 0.00 0.00 37
20260508162621 22 180 0.0 0.0 0.00 0.00 0.00 37
20260508162420 22 180 0.0 0.0 0.00 0.00 0.00 37
20260508162218 22 180 0.0 0.0 0.00 0.00 0.00 36
20260508162016 22 180 0.0 0.0 0.00 0.00 0.00 36
20260508161815 22 180 0.0 0.0 0.00 0.00 0.00 36
20260508161613 22 180 0.0 0.0 0.00 0.00 0.00 36
20260508161412 23 180 0.0 0.0 0.00 0.00 0.00 36
20260508161210 23 180 0.0 0.0 0.00 0.00 0.00 35
20260508161009 23 180 0.0 0.0 0.00 0.00 0.00 35
20260508160606 23 180 0.0 0.0 0.00 0.00 0.00 35
20260508160404 23 180 0.0 0.0 0.00 0.00 0.00 35
20260508160203 23 180 0.0 0.0 0.00 0.00 0.00 34
20260508160001 23 180 0.0 0.0 0.00 0.00 0.00 33
20260508155759 24 180 0.0 0.0 0.00 0.00 0.00 33
20260508155356 24 180 0.0 0.0 0.00 0.00 0.00 33
20260508155155 23 180 0.0 0.0 0.00 0.00 0.00 33
20260508154953 24 180 0.0 0.0 0.00 0.00 0.00 32
20260508154752 24 180 0.0 0.0 0.00 0.00 0.00 33
20260508154550 23 180 0.0 0.0 0.00 0.00 0.00 34